Kezdőlap
METAR-TAF:

METAR-TAF

Repülőterek :

Rochelle Municipal Airport (Koritz Field)

Rochelle, Illinois, Amerikai Egyesült Államok

földrajzi szélesség: 41-53-35N, földrajzi hosszúság: 089-04-42W, magasság: 238 m

Jelenlegi meteorológiai megfigyelések

A jelentés 25 perccel ezelõtt készült, 05:15 UTC
Déli szél 5 kt
Hőmérséklet 8°C
Páratartalom 93%
Légköri nyomás 1006 hPa
Látótávolság: 16.1 km
Szórványos felhőzet 9000 lábon

METAR: KRPJ 300515Z AUTO 19005KT 10SM SCT090 08/07 A2971 RMK AO2 T00800074

Idő: 00:40 (05:40 UTC)


TAF: hiányzik

Meteorológiai megfigyelések és előrejelzések több, mint 4000 repülőtéren (METAR és TAF jelentéseket).

A térképen piros és sárga pontok jelzik az elérhető meteorológiai állomásokat.

Mozgassa az egeret a pont fölött, hogy megjelenjen az állomás neve.

Azután kattintson az időjárási megfigyelések és előrejelzések megtekintéséhez.

A térkép megváltoztatása: kattintson a fekete keresztel jelölt zöld gombra ráközelítéshez, a vonallal jelölt zöld gombra távolításhoz, vagy a zöld nyilakra a szomszédos térképek eléréséhez.


METAR-TAF: